This demonstration page uses our WeatherBlox Daily Observations layout. Learn more.

Left ArrowRight Arrow

41.12389, -100.76542

Hourly Observations for November 30, 2016

Temp ( °F °C ) Dew Point ( °F °C ) Humidity (%) Winds ( mph kmh ) Pressure ( in mb ) Visibility ( mi km ) Precip ( " mm )
12:53 am 00:53 Clear 26 -3.3 21 -6.1 81 81 WNW 13 20 29.87 1012 10 16 0.00 0.00
1:53 am 01:53 Clear 25 -3.9 20 -6.7 81 81 WNW 13 20 29.88 1012 10 16 0.00 0.00
2:53 am 02:53 Cloudy 27 -2.8 21 -6.1 78 78 WNW 13 20 29.88 1012 10 16 0.00 0.00
3:53 am 03:53 Cloudy 26 -3.3 21 -6.1 81 81 WNW 10 17 29.88 1012 10 16 0.00 0.00
4:53 am 04:53 Mostly Cloudy 23 -5 20 -6.7 88 88 NW 6 9 29.88 1012 10 16 0.00 0.00
5:53 am 05:53 Clear 21 -6.1 18 -7.8 88 88 NW 6 9 29.88 1012 10 16 0.00 0.00
6:53 am 06:53 Clear 22 -5.6 18 -7.8 85 85 NW 7 11 29.89 1012 10 16 0.00 0.00
7:53 am 07:53 Cloudy 21 -6.1 18 -7.8 88 88 WNW 6 9 29.90 1013 10 16 0.00 0.00
8:53 am 08:53 Partly Cloudy 26 -3.3 22 -5.6 84 84 WNW 5 7 29.90 1013 10 16 0.00 0.00
9:53 am 09:53 Mostly Cloudy 30 -1.1 23 -5 75 75 NW 7 11 29.91 1013 10 16 0.00 0.00
10:53 am 10:53 Mostly Cloudy 33 0.6 23 -5 66 66 NW 18 30 29.92 1013 10 16 0.00 0.00
11:53 am 11:53 Partly Cloudy 36 2.2 22 -5.6 57 57 NW 22 35 29.92 1013 10 16 0.00 0.00
12:53 pm 12:53 Cloudy 35 1.7 21 -6.1 57 57 NW 18 30 29.91 1013 10 16 0.00 0.00
1:53 pm 13:53 Cloudy 36 2.2 21 -6.1 55 55 NNW 13 20 29.91 1013 10 16 0.00 0.00
2:53 pm 14:53 Cloudy 35 1.7 22 -5.6 59 59 NNW 9 15 29.90 1012 10 16 0.00 0.00
3:53 pm 15:53 Cloudy 36 2.2 22 -5.6 57 57 N 10 17 29.91 1013 10 16 0.00 0.00
4:53 pm 16:53 Partly Cloudy 36 2.2 21 -6.1 55 55 NNW 8 13 29.91 1013 10 16 0.00 0.00
5:53 pm 17:53 Mostly Cloudy 32 0 20 -6.7 61 61 NNW 3 6 29.94 1014 10 16 0.00 0.00
6:53 pm 18:53 Mostly Cloudy 29 -1.7 20 -6.7 69 69 Calm 29.97 1015 10 16 0.00 0.00
7:53 pm 19:53 Cloudy 30 -1.1 21 -6.1 69 69 N 3 6 29.98 1015 10 16 0.00 0.00
8:53 pm 20:53 Cloudy 29 -1.7 21 -6.1 72 72 Calm 30.00 1016 10 16 0.00 0.00
9:53 pm 21:53 Mostly Cloudy 24 -4.4 19 -7.2 81 81 W 6 9 30.00 1016 10 16 0.00 0.00
10:53 pm 22:53 Clear 22 -5.6 19 -7.2 89 89 Calm 30.00 1016 10 16 0.00 0.00
11:53 pm 23:53 Clear 21 -6.1 17 -8.3 85 85 W 6 9 30.02 1017 10 16 0.00 0.00

Powered by AerisWeather